TimeBST,TemperatureF,Dew PointF,Humidity,Sea Level PressureIn,VisibilityMPH,Wind Direction,Wind SpeedMPH,Gust SpeedMPH,PrecipitationIn,Events,Conditions,WindDirDegrees,DateUTC
12:20 AM,44.6,41.0,87,30.04,6.2,North,8.1,-,N/A,,Mostly Cloudy,10,2013-05-24 23:20:00
12:50 AM,43,40,84,30.06,11,North,9.2,,,,Mostly Cloudy,10,2013-05-24 23:50:00
12:50 AM,42.8,41.0,93,30.04,6.2,North,8.1,-,N/A,,Scattered Clouds,10,2013-05-24 23:50:00
1:20 AM,42.8,41.0,93,30.06,6.2,North,6.9,-,N/A,,Scattered Clouds,10,2013-05-25 00:20:00
1:50 AM,42.8,39.2,87,30.06,6.2,North,8.1,-,N/A,,Scattered Clouds,10,2013-05-25 00:50:00
2:20 AM,42.8,39.2,87,30.06,-9999.0,North,6.9,-,N/A,,Clear,10,2013-05-25 01:20:00
2:50 AM,42.8,39.2,87,30.09,6.2,North,5.8,-,N/A,,Unknown,10,2013-05-25 01:50:00
3:20 AM,42.8,39.2,87,30.09,6.2,NNE,6.9,-,N/A,,Unknown,30,2013-05-25 02:20:00
3:50 AM,42,39,86,30.10,7,NNE,8.1,,,,Scattered Clouds,20,2013-05-25 02:50:00
3:50 AM,41.0,39.2,93,30.09,5.6,NNE,6.9,-,N/A,,Unknown,20,2013-05-25 02:50:00
4:20 AM,41.0,39.2,93,30.09,5.6,North,4.6,-,N/A,,Unknown,10,2013-05-25 03:20:00
4:50 AM,41.0,39.2,93,30.09,5.6,North,5.8,-,N/A,,Unknown,360,2013-05-25 03:50:00
5:20 AM,41.0,39.2,93,30.12,5.0,North,5.8,-,N/A,,Scattered Clouds,360,2013-05-25 04:20:00
5:50 AM,42.8,41.0,93,30.12,6.2,NNE,5.8,-,N/A,,Scattered Clouds,20,2013-05-25 04:50:00
6:20 AM,42.8,41.0,93,30.12,6.2,North,8.1,-,N/A,,Mostly Cloudy,10,2013-05-25 05:20:00
6:50 AM,44,40,82,30.14,12,NNE,9.2,,,,,20,2013-05-25 05:50:00
6:50 AM,44.6,41.0,87,30.12,6.2,NNE,6.9,-,N/A,,Scattered Clouds,20,2013-05-25 05:50:00
7:20 AM,44.6,41.0,87,30.15,6.2,North,8.1,-,N/A,,Partly Cloudy,10,2013-05-25 06:20:00
7:50 AM,46.4,41.0,81,30.15,6.2,North,8.1,-,N/A,,Partly Cloudy,10,2013-05-25 06:50:00
8:20 AM,48.2,15.8,27,30.15,6.2,North,8.1,-,N/A,,Scattered Clouds,360,2013-05-25 07:20:00
8:50 AM,48.2,41.0,76,30.15,6.2,North,9.2,-,N/A,,Mostly Cloudy,360,2013-05-25 07:50:00
9:20 AM,48.2,41.0,76,30.18,6.2,North,8.1,-,N/A,,Scattered Clouds,350,2013-05-25 08:20:00
9:50 AM,50,39,55,30.18,22,NNW,8.1,,,,Partly Cloudy,340,2013-05-25 08:50:00
9:50 AM,50.0,41.0,71,30.18,6.2,North,6.9,-,N/A,,Scattered Clouds,10,2013-05-25 08:50:00
10:20 AM,51.8,41.0,67,30.18,6.2,North,6.9,-,N/A,,Scattered Clouds,360,2013-05-25 09:20:00
10:50 AM,53.6,41.0,62,30.18,6.2,NNW,8.1,-,N/A,,Scattered Clouds,340,2013-05-25 09:50:00
11:20 AM,53.6,41.0,62,30.18,6.2,North,9.2,-,N/A,,Scattered Clouds,360,2013-05-25 10:20:00
11:50 AM,55.4,41.0,58,30.18,6.2,North,9.2,-,N/A,,Scattered Clouds,10,2013-05-25 10:50:00
12:20 PM,53.6,39.2,58,30.18,6.2,North,8.1,-,N/A,,Scattered Clouds,10,2013-05-25 11:20:00
12:50 PM,55,36,37,30.17,19,North,6.9,,,,Scattered Clouds,0,2013-05-25 11:50:00
12:50 PM,55.4,39.2,54,30.15,6.2,NNW,5.8,-,N/A,,Scattered Clouds,340,2013-05-25 11:50:00
1:20 PM,57.2,39.2,51,30.15,6.2,NNW,5.8,-,N/A,,Scattered Clouds,340,2013-05-25 12:20:00
1:50 PM,57.2,33.8,41,30.15,6.2,NNW,8.1,-,N/A,,Scattered Clouds,340,2013-05-25 12:50:00
2:20 PM,57.2,32.0,38,30.15,6.2,North,8.1,-,N/A,,Partly Cloudy,350,2013-05-25 13:20:00
2:50 PM,57.2,39.2,51,30.15,-9999.0,NNW,9.2,-,N/A,,Clear,340,2013-05-25 13:50:00
3:20 PM,57.2,37.4,48,30.15,6.2,North,4.6,-,N/A,,Partly Cloudy,350,2013-05-25 14:20:00
3:50 PM,60,34,25,30.16,25,NNW,8.1,,,,Mostly Cloudy,340,2013-05-25 14:50:00
3:50 PM,59.0,37.4,45,30.15,6.2,NNW,9.2,-,N/A,,Partly Cloudy,330,2013-05-25 14:50:00
4:20 PM,59.0,35.6,42,30.15,-9999.0,North,9.2,-,N/A,,Clear,350,2013-05-25 15:20:00
4:50 PM,59.0,35.6,42,30.15,-9999.0,North,9.2,-,N/A,,Clear,360,2013-05-25 15:50:00
5:20 PM,59.0,35.6,42,30.15,-9999.0,NW,9.2,-,N/A,,Clear,320,2013-05-25 16:20:00
5:50 PM,59.0,37.4,45,30.15,-9999.0,North,8.1,-,N/A,,Clear,350,2013-05-25 16:50:00
6:20 PM,59.0,37.4,45,30.15,-9999.0,North,5.8,-,N/A,,Clear,360,2013-05-25 17:20:00
6:50 PM,59,35,29,30.15,19,NNW,8.1,,,,Scattered Clouds,340,2013-05-25 17:50:00
6:50 PM,57.2,37.4,48,30.15,-9999.0,NNW,9.2,-,N/A,,Clear,340,2013-05-25 17:50:00
7:20 PM,59.0,35.6,42,30.15,-9999.0,North,6.9,-,N/A,,Clear,360,2013-05-25 18:20:00
7:50 PM,57.2,35.6,44,30.15,-9999.0,North,5.8,-,N/A,,Clear,350,2013-05-25 18:50:00
8:20 PM,57.2,35.6,44,30.15,-9999.0,North,4.6,-,N/A,,Clear,350,2013-05-25 19:20:00
8:50 PM,55.4,37.4,51,30.15,-9999.0,NW,4.6,-,N/A,,Clear,320,2013-05-25 19:50:00
9:20 PM,53.6,37.4,54,30.15,-9999.0,NW,3.5,-,N/A,,Clear,310,2013-05-25 20:20:00
9:50 PM,54,37,40,30.16,19,WNW,3.5,,,,,300,2013-05-25 20:50:00
9:50 PM,51.8,39.2,62,30.15,-9999.0,NW,3.5,-,N/A,,Clear,310,2013-05-25 20:50:00
10:20 PM,50.0,39.2,66,30.15,-9999.0,WNW,3.5,-,N/A,,Clear,300,2013-05-25 21:20:00
10:50 PM,48.2,39.2,71,30.15,-9999.0,WNW,4.6,-,N/A,,Clear,300,2013-05-25 21:50:00
11:20 PM,46.4,39.2,76,30.15,-9999.0,WNW,5.8,-,N/A,,Clear,290,2013-05-25 22:20:00
11:50 PM,46.4,39.2,76,30.15,-9999.0,WNW,5.8,-,N/A,,Clear,290,2013-05-25 22:50:00